Weather History for Cheyenne F E Warren, WY

Change the Weather History Date:

Wednesday, April 9, 2014

  Actual Average (KCYS) Record (KCYS)
Temperature  
Mean Temperature 59 °F 41 °F  
Max Temperature 70 °F 53 °F 75 °F (1977)
Min Temperature 48 °F 29 °F 6 °F (2013)
Degree Days  
Heating Degree Days 6 24  
Month to date heating degree days 225  
Since 1 July heating degree days 6145  
Cooling Degree Days 0 0  
Month to date cooling degree days 0  
Year to date cooling degree days 0  
Growing Degree Days 9 (Base 50)    
Moisture  
Dew Point 20 °F    
Average Humidity 23    
Maximum Humidity 39    
Minimum Humidity 11    
Precipitation  
Precipitation 0.00 in 0.05 in 1.09 in (1901)
Month to date precipitation 0.41  
Year to date precipitation 2.26  
Snow  
Snow 0.00 in 0.40 in 9.00 in (1901)
Month to date snowfall 3.6  
Since 1 July snowfall 51.4  
Snow Depth -    
Sea Level Pressure  
Sea Level Pressure 29.83 in    
Wind  
Wind Speed 20 mph (WNW)    
Max Wind Speed 34 mph    
Max Gust Speed 50 mph    
Visibility 12 miles    
Events      
T = Trace of Precipitation, MM = Missing Value Source: NWS Daily Summary

Daily Weather History Graph

Daily Weather History Graph

Search for Another Location

Airport:

Trip Planner

Search our weather history database for the weather conditions in past years. The results will help you decide how hot, cold, wet, or windy it might be!

Date:

Astronomy

Apr. 09, 2014 Rise Set
Actual Time 6:29 AM MDT 7:33 PM MDT
Civil Twilight 6:01 AM MDT 8:01 PM MDT
Nautical Twilight 5:27 AM MDT 8:35 PM MDT
Astronomical Twilight 4:52 AM MDT 9:10 PM MDT
Moon 2:21 PM MDT (4/9) 3:22 AM MDT (4/9)
Length of Visible Light 14h 00m
Length of Day
13h 03m
Waxing Gibbous, 72% of the Moon is Illuminated
Apr 9
Waxing Gibbous
Apr 15
Full
Apr 22
Last Quarter
Apr 29
New
May 6
First Quarter

Hourly Weather History & Observations

Time (MDT) Temp. Dew Point Humidity Pressure Visibility Wind Dir Wind Speed Gust Speed Precip Events Conditions
4:56 AM 50.4 °F 20.3 °F 31% 29.90 in 12.0 mi WNW 21.9 mph 29.9 mph N/A   Mostly Cloudy
5:56 AM 48.9 °F 20.5 °F 33% 29.90 in 12.0 mi WNW 21.9 mph - N/A   Clear
6:56 AM 48.9 °F 21.4 °F 34% 29.92 in 12.0 mi WNW 24.2 mph - N/A   Clear
7:56 AM 51.8 °F 21.4 °F 30% 29.93 in 12.0 mi West 17.3 mph 28.8 mph N/A   Partly Cloudy
8:56 AM 54.1 °F 21.9 °F 29% 29.93 in 12.0 mi West 20.7 mph 27.6 mph N/A   Partly Cloudy
9:56 AM 58.3 °F 21.0 °F 24% 29.92 in 12.0 mi West 23.0 mph 29.9 mph N/A   Clear
10:56 AM 64.9 °F 21.6 °F 19% 29.90 in 12.0 mi West 20.7 mph 29.9 mph N/A   Clear
11:56 AM 64.6 °F 21.6 °F 19% 29.86 in 12.0 mi WNW 16.1 mph 28.8 mph N/A   Clear
12:56 PM 68.0 °F 21.4 °F 17% 29.82 in 12.0 mi WNW 19.6 mph 28.8 mph N/A   Mostly Cloudy
1:56 PM 68.2 °F 20.7 °F 16% 29.81 in 12.0 mi West 17.3 mph 32.2 mph N/A   Mostly Cloudy
2:56 PM 69.8 °F 18.5 °F 14% 29.76 in 12.0 mi West 25.3 mph 34.5 mph N/A   Partly Cloudy
3:56 PM 70.9 °F 14.0 °F 11% 29.73 in 12.0 mi West 34.5 mph 49.5 mph N/A   Partly Cloudy
4:56 PM 68.7 °F 16.7 °F 14% 29.74 in 12.0 mi WNW 28.8 mph 40.3 mph N/A   Partly Cloudy
5:56 PM 66.7 °F 18.9 °F 16% 29.74 in 12.0 mi WNW 21.9 mph 28.8 mph N/A   Clear
6:56 PM 62.6 °F 19.6 °F 19% 29.75 in 12.0 mi West 9.2 mph 21.9 mph N/A   Scattered Clouds
7:56 PM 60.3 °F 18.3 °F 20% 29.77 in 12.0 mi WNW 13.8 mph - N/A   Mostly Cloudy
8:56 PM 58.8 °F 22.1 °F 24% 29.78 in 12.0 mi WNW 13.8 mph - N/A   Mostly Cloudy
9:56 PM 57.6 °F 22.5 °F 26% 29.78 in 12.0 mi West 13.8 mph - N/A   Mostly Cloudy
10:56 PM 48.4 °F 24.1 °F 39% 29.80 in 12.0 mi NNE 2.3 mph 31.1 mph N/A   Partly Cloudy